Weather History for Warrenton, VA

Change the Weather History Date:

Tuesday, July 16, 2013

  Actual Average (KHEF) Record (KHEF)
Temperature  
Mean Temperature 84 °F -  
Max Temperature 95 °F 83 °F 95 °F (2010)
Min Temperature 72 °F 61 °F 57 °F (2001)
Cooling Degree Days 18    
Growing Degree Days 34 (Base 50)    
Moisture  
Dew Point 78 °F    
Average Humidity 88    
Maximum Humidity 100    
Minimum Humidity 63    
Precipitation  
Precipitation 0.23 in - - ()
Sea Level Pressure  
Sea Level Pressure 30.23 in    
Wind  
Wind Speed 2 mph (North)    
Max Wind Speed 12 mph    
Max Gust Speed 16 mph    
Visibility 7 miles    
Events Fog , Rain    
Averages and records for this station are not official NWS values.
T = Trace of Precipitation, MM = Missing Value Source: NWS Daily Summary

Daily Weather History Graph

Daily Weather History Graph

Search for Another Location

Airport:

Trip Planner

Search our weather history database for the weather conditions in past years. The results will help you decide how hot, cold, wet, or windy it might be!

Date:

Astronomy

Jul. 16, 2013 Rise Set
Actual Time 5:59 AM EDT 8:33 PM EDT
Civil Twilight 5:28 AM EDT 9:04 PM EDT
Nautical Twilight 4:50 AM EDT 9:42 PM EDT
Astronomical Twilight 4:07 AM EDT 10:25 PM EDT
Moon 2:14 PM EDT (7/16) 12:25 AM EDT (7/16)
Length of Visible Light 15h 35m
Length of Day
14h 34m
First Quarter, 56% of the Moon is Illuminated
Jul 16
First Quarter
Jul 22
Full
Jul 29
Last Quarter
Aug 6
New
Aug 14
First Quarter

Hourly Weather History & Observations

Time (EDT) Temp. Heat Index Dew Point Humidity Pressure Visibility Wind Dir Wind Speed Gust Speed Precip Events Conditions
12:15 AM 75.6 °F - 75.6 °F 100% 30.24 in 7.0 mi Calm Calm - N/A   Clear
12:35 AM 75.2 °F - 75.2 °F 100% 30.23 in 5.0 mi Calm Calm - N/A   Clear
12:55 AM 75.0 °F - 75.0 °F 100% 30.23 in 7.0 mi Calm Calm - N/A   Clear
1:15 AM 75.2 °F - 75.2 °F 100% 30.23 in 10.0 mi Calm Calm - N/A   Clear
1:35 AM 74.5 °F - 74.5 °F 100% 30.23 in 5.0 mi Calm Calm - N/A   Clear
1:55 AM 73.9 °F - 73.9 °F 100% 30.23 in 4.0 mi Calm Calm - N/A   Clear
2:15 AM 74.7 °F - 74.7 °F 100% 30.23 in 7.0 mi Calm Calm - N/A   Clear
2:35 AM 74.5 °F - 74.5 °F 100% 30.23 in 5.0 mi Calm Calm - N/A   Clear
2:55 AM 75.4 °F - 75.4 °F 100% 30.23 in 7.0 mi Calm Calm - N/A   Clear
3:15 AM 75.6 °F - 75.6 °F 100% 30.22 in 7.0 mi SW 3.5 mph - N/A   Clear
3:35 AM 75.4 °F - 75.4 °F 100% 30.22 in 7.0 mi Calm Calm - N/A   Clear
3:55 AM 74.7 °F - 74.7 °F 100% 30.23 in 7.0 mi Calm Calm - N/A   Clear
4:15 AM 74.5 °F - 74.5 °F 100% 30.22 in 2.5 mi Calm Calm - N/A   Clear
4:35 AM 74.3 °F - 74.3 °F 100% 30.23 in 5.0 mi Calm Calm - N/A   Scattered Clouds
4:55 AM 73.4 °F - 73.4 °F 100% 30.22 in 3.0 mi Calm Calm - N/A   Scattered Clouds
5:15 AM 73.4 °F - 73.4 °F 100% 30.23 in 2.5 mi Calm Calm - N/A   Clear
5:35 AM 72.7 °F - 72.7 °F 100% 30.23 in 1.0 mi Calm Calm - N/A   Mist
5:55 AM 72.3 °F - 72.3 °F 100% 30.24 in 0.8 mi Calm Calm - N/A   Mist
6:15 AM 73.4 °F - 73.4 °F 100% 30.24 in 7.0 mi Calm Calm - N/A   Clear
6:35 AM 74.1 °F - 74.1 °F 100% 30.24 in 10.0 mi Calm Calm - N/A   Clear
6:55 AM 75.0 °F - 75.0 °F 100% 30.24 in 10.0 mi Calm Calm - N/A   Clear
7:15 AM 76.5 °F - 76.5 °F 100% 30.24 in 10.0 mi Calm Calm - N/A   Clear
7:35 AM 78.1 °F - 77.7 °F 99% 30.24 in 10.0 mi SW 3.5 mph - N/A   Mostly Cloudy
7:55 AM 80.6 °F 87.5 °F 77.9 °F 91% 30.25 in 10.0 mi Calm Calm - N/A   Mostly Cloudy
8:15 AM 83.1 °F 93.3 °F 78.3 °F 85% 30.25 in 10.0 mi Calm Calm - N/A   Clear
8:35 AM 85.1 °F 98.0 °F 79.2 °F 82% 30.25 in 10.0 mi Calm Calm - N/A   Clear
8:55 AM 87.1 °F 100.4 °F 78.3 °F 75% 30.25 in 10.0 mi NNW 8.1 mph - N/A   Clear
9:15 AM 87.1 °F 99.8 °F 78.1 °F 74% 30.26 in 10.0 mi NNW 11.5 mph - N/A   Clear
9:35 AM 88.0 °F 103.1 °F 79.0 °F 75% 30.26 in 10.0 mi NNW 9.2 mph - N/A   Clear
9:55 AM 88.5 °F 104.1 °F 79.3 °F 74% 30.26 in 10.0 mi NNW 10.4 mph - N/A   Clear
10:15 AM 88.9 °F 104.5 °F 79.2 °F 73% 30.26 in 10.0 mi NNW 10.4 mph - N/A   Clear
10:35 AM 89.1 °F 104.4 °F 79.2 °F 72% 30.26 in 10.0 mi NNW 10.4 mph - N/A   Clear
10:55 AM 90.1 °F 108.5 °F 80.4 °F 73% 30.26 in 10.0 mi NNE 6.9 mph - N/A   Clear
11:15 AM 90.5 °F 108.2 °F 80.1 °F 71% 30.25 in 10.0 mi North 8.1 mph - N/A   Clear
11:55 AM 91.2 °F 107.4 °F 79.0 °F 67% 30.25 in 10.0 mi North 3.5 mph - N/A   Clear
12:15 PM 91.8 °F 106.8 °F 77.9 °F 64% 30.25 in 10.0 mi NNW 6.9 mph 16.1 mph N/A   Clear
12:35 PM 91.8 °F 109.8 °F 79.7 °F 68% 30.25 in 10.0 mi NNW 8.1 mph - N/A   Clear
12:55 PM 92.3 °F 111.5 °F 80.4 °F 68% 30.24 in 10.0 mi NNW 8.1 mph - N/A   Scattered Clouds
1:15 PM 93.9 °F 115.9 °F 81.3 °F 67% 30.24 in 10.0 mi North 5.8 mph - N/A   Scattered Clouds
1:35 PM 93.2 °F 113.6 °F 81.0 °F 67% 30.23 in 10.0 mi North 6.9 mph - N/A   Scattered Clouds
1:55 PM 93.2 °F 112.7 °F 80.4 °F 66% 30.23 in 10.0 mi North 6.9 mph - N/A   Scattered Clouds
2:15 PM 93.6 °F 114.7 °F 81.0 °F 67% 30.23 in 10.0 mi North 5.8 mph - N/A   Scattered Clouds
2:35 PM 95.0 °F 115.8 °F 80.6 °F 63% 30.22 in 10.0 mi NNW 6.9 mph - N/A   Scattered Clouds
2:55 PM 93.6 °F 113.0 °F 80.1 °F 65% 30.21 in 10.0 mi North 5.8 mph - N/A   Scattered Clouds
3:15 PM 94.5 °F 115.0 °F 80.4 °F 64% 30.21 in 10.0 mi North 4.6 mph - N/A   Scattered Clouds
3:35 PM 94.1 °F 113.8 °F 80.2 °F 64% 30.20 in 10.0 mi NNE 6.9 mph - N/A   Mostly Cloudy
4:55 PM 81.7 °F 92.4 °F 80.8 °F 97% 30.19 in 7.0 mi Calm Calm - 0.06 in Rain Light Rain
5:15 PM 81.5 °F 92.6 °F 81.5 °F 100% 30.19 in 7.0 mi Calm Calm - 0.03 in   Scattered Clouds
5:35 PM 81.5 °F 92.6 °F 81.5 °F 100% 30.19 in 4.0 mi Calm Calm - 0.05 in   Clear
5:55 PM 84.2 °F 103.5 °F 84.2 °F 100% 30.18 in 7.0 mi Calm Calm - 0.08 in   Clear
6:15 PM 88.0 °F 111.0 °F 83.7 °F 87% 30.18 in 10.0 mi Calm Calm - 0.02 in   Clear
6:35 PM 89.8 °F 115.7 °F 84.4 °F 84% 30.18 in 10.0 mi Calm Calm - 0.03 in   Clear
6:55 PM 90.9 °F 110.8 °F 81.0 °F 73% 30.18 in 10.0 mi North 5.8 mph - 0.05 in   Clear
7:15 PM 90.3 °F 107.6 °F 79.9 °F 71% 30.19 in 10.0 mi North 4.6 mph - 0.01 in   Clear
7:35 PM 89.1 °F 106.4 °F 80.1 °F 75% 30.19 in 10.0 mi Calm Calm - 0.02 in   Clear
7:55 PM 87.1 °F 105.0 °F 81.3 °F 83% 30.20 in 10.0 mi Calm Calm - 0.02 in   Clear
8:15 PM 81.7 °F 92.7 °F 81.1 °F 98% 30.20 in 10.0 mi Calm Calm - N/A   Clear
8:35 PM 79.2 °F - 79.2 °F 100% 30.20 in 7.0 mi Calm Calm - 0.01 in   Clear
8:55 PM 78.3 °F - 78.3 °F 100% 30.20 in 7.0 mi Calm Calm - 0.01 in   Clear
9:15 PM 77.0 °F - 77.0 °F 100% 30.20 in 7.0 mi Calm Calm - N/A   Clear
9:35 PM 77.4 °F - 77.4 °F 100% 30.21 in 5.0 mi SE 3.5 mph - 0.01 in   Clear
9:55 PM 77.0 °F - 77.0 °F 100% 30.21 in 3.0 mi Calm Calm - 0.01 in   Clear
10:15 PM 76.3 °F - 76.3 °F 100% 30.22 in 4.0 mi Calm Calm - N/A   Clear
10:35 PM 76.1 °F - 76.1 °F 100% 30.22 in 2.0 mi Calm Calm - N/A   Clear
10:55 PM 75.9 °F - 75.9 °F 100% 30.22 in 5.0 mi Calm Calm - N/A   Clear
11:15 PM 75.4 °F - 75.4 °F 100% 30.23 in 0.2 mi Calm Calm - N/A Fog Fog
11:35 PM 75.2 °F - 75.2 °F 100% 30.22 in 1.0 mi Calm Calm - N/A   Mist
11:55 PM 75.2 °F - 75.2 °F 100% 30.22 in 0.2 mi Calm Calm - N/A Fog Fog